Wind_Speed
19 18 17 12 11 8 6 6 8 8 16 14 26 30 20 25 25 31 32 33 28 31 28 25 22 23 25 25 26 27 32 35 36 32 34 34 35 35 33 36 39 40 42
20 19 17 11 8 6 4 1 3 10 13 10 20 27 22 25 26 24 24 21 23 23 22 22 21 20 23 25 25 25 24 26 31 32 30 31 32 32 33 35 38 39 40
22 21 18 13 9 6 5 4 6 7 8 10 11 12 14 14 15 19 19 21 21 22 21 19 20 21 24 26 27 24 25 27 30 32 29 31 32 34 35 37 37 40 42
24 23 19 15 12 8 9 7 6 7 8 9 10 11 12 13 13 14 16 18 19 18 18 19 20 23 24 25 26 27 29 32 34 38 37 34 35 33 39 40 43 44 45
25 24 20 19 17 13 10 9 10 10 10 11 12 13 14 14 14 13 13 15 17 18 20 23 24 26 27 29 31 31 33 34 37 38 41 40 38 38 40 42 43 43 43
27 25 24 24 21 18 17 16 14 14 14 14 14 13 14 12 14 15 16 17 19 20 22 24 25 26 27 29 30 30 32 34 36 37 37 38 37 39 41 44 46 46 49
30 31 29 27 25 23 21 19 18 18 19 19 19 19 18 18 19 20 20 21 23 25 24 25 26 27 29 31 32 33 35 39 42 44 45 44 45 48 50 53 53 58 56
34 34 33 31 29 27 25 22 23 23 22 21 23 23 23 24 25 24 25 27 28 29 30 31 33 35 36 37 39 42 44 46 47 50 51 53 56 57 57 59 63 61 70
36 36 35 35 33 29 25 22 21 22 22 24 25 25 25 24 26 28 31 33 33 36 37 39 40 43 45 42 40 42 46 53 54 53 53 55 58 57 55 61 65 61 70
31 31 34 38 37 30 28 25 23 22 23 25 26 26 28 28 29 31 34 37 39 41 43 47 47 47 46 47 52 55 57 58 60 64 64 63 66 64 66 69 68 73 77
37 42 33 30 33 34 33 30 27 25 26 26 27 30 32 35 39 36 43 45 45 49 48 48 44 41 41 43 46 49 52 55 58 60 62 65 68 69 70 70 72 75 77
38 38 38 38 35 34 33 33 31 32 32 32 33 35 37 40 43 44 46 48 46 44 44 44 45 47 49 50 53 55 58 59 62 64 66 68 71 72 73 75 76 78 80
53 54 48 44 43 40 36 37 38 39 40 39 38 39 41 42 43 45 45 46 46 47 47 49 51 54 57 58 59 60 62 64 65 67 69 72 73 75 77 78 81 82 83
51 59 59 60 51 48 39 41 47 53 44 42 44 44 44 45 46 48 49 51 52 53 54 56 58 60 62 63 64 65 66 67 69 71 73 76 78 80 82 83 84 85 84
57 54 59 54 57 55 53 48 51 55 48 45 47 47 49 51 53 54 56 58 60 60 61 64 64 65 68 68 68 69 71 73 75 77 78 79 79 81 82 81 79 76 74
47 49 50 51 52 48 48 46 45 48 50 49 50 53 54 56 57 59 61 63 64 66 67 69 70 70 70 71 73 74 75 76 77 78 80 81 80 80 78 75 72 71 71
44 45 43 44 46 47 43 43 47 49 48 50 51 53 55 57 60 62 64 65 67 69 69 70 70 71 72 75 76 76 77 78 80 81 80 78 75 74 74 74 75 75 77
30 32 33 35 35 36 35 37 41 43 46 50 53 55 57 59 60 62 64 66 67 69 70 72 73 73 75 77 78 79 80 80 80 79 78 77 77 77 77 77 78 78 77
26 27 30 32 34 36 38 41 43 47 49 51 54 56 58 60 62 64 66 68 70 71 73 75 76 78 79 78 80 81 80 79 77 74 73 74 76 77 78 79 79 79 79
36 37 39 40 42 44 46 49 51 53 55 57 59 60 62 64 66 68 70 72 74 76 77 79 80 79 79 78 78 77 75 76 76 76 75 77 78 79 80 80 80 79 79
43 44 46 48 49 51 53 54 56 58 60 62 63 66 68 69 71 73 75 77 78 78 79 79 78 78 78 78 77 76 77 77 78 79 80 81 81 81 81 81 80 79 78
50 52 53 55 57 58 60 61 63 65 66 68 69 71 71 72 73 74 75 75 76 77 77 77 77 77 77 77 78 79 80 80 80 81 81 80 79 78 76 75 74 72 70
59 60 61 62 62 63 64 65 65 66 67 68 69 70 71 73 73 74 75 75 76 76 77 77 78 79 79 79 80 80 80 79 78 76 74 72 70 69 68 65 63 60 58
59 60 61 62 62 63 64 65 67 68 69 70 72 73 75 75 76 77 78 79 80 80 80 80 80 80 79 79 77 76 73 70 68 66 64 62 59 56 54 53 54 57 59
66 68 69 70 71 72 74 75 76 77 78 79 80 80 81 81 81 81 81 81 80 79 78 78 76 75 73 71 68 65 63 60 57 54 52 50 50 51 54 57 59 62 63
70 71 72 72 74 75 75 76 76 76 76 76 76 76 76 75 76 76 76 75 74 73 71 69 67 64 61 58 55 52 50 48 46 45 45 48 51 55 57 59 60 61 62
Wind_Direction
228 233 236 242 249 248 269 312 214 221 200 194 200 208 219 216 213 220 232 236 238 244 236 228 233 243 262 273 276 272 267 265 267 260 266 273 279 281 280 280 280 283 284
230 231 233 239 250 246 223 184 167 198 218 198 190 200 207 200 203 219 220 218 225 231 234 251 262 257 253 256 262 261 269 272 270 271 270 276 277 279 278 279 278 283 284
227 234 228 230 236 226 207 168 155 167 185 201 206 203 204 214 220 225 224 233 242 247 250 247 252 257 260 262 264 270 273 272 275 279 280 281 282 283 284 283 283 280 280
226 231 229 229 230 228 218 212 192 192 192 190 193 200 205 210 216 224 222 233 238 246 253 256 259 261 265 271 275 276 277 278 278 279 280 279 280 281 282 282 279 280 282
225 226 227 228 227 229 222 217 215 206 204 206 212 215 220 224 229 237 241 247 252 255 256 256 258 263 269 273 275 279 280 280 278 279 280 282 282 283 282 282 284 286 282
228 227 227 228 228 229 228 222 220 222 223 227 230 233 237 245 251 254 256 259 261 264 266 268 271 274 275 276 280 283 284 284 282 282 283 283 283 282 281 280 280 282 282
226 228 229 229 229 230 233 234 234 235 237 237 238 239 246 250 253 254 256 258 262 260 263 274 276 276 279 279 280 281 282 282 281 281 283 284 286 288 288 287 286 284 281
226 226 227 228 228 232 234 238 241 242 242 244 246 247 250 254 257 261 263 261 262 266 268 271 273 276 278 277 279 282 285 286 285 287 285 285 287 285 284 285 284 287 275
238 231 231 233 231 232 235 234 236 242 245 244 247 249 249 250 257 259 264 270 272 274 276 276 275 277 276 276 279 277 284 280 279 279 280 279 280 278 279 283 281 278 280
245 250 240 246 229 225 229 231 234 242 251 254 254 259 263 269 271 272 271 271 273 275 278 278 276 280 275 274 273 272 271 270 270 274 276 275 276 278 282 280 279 282 284
244 245 241 235 230 223 226 228 231 240 247 251 258 264 266 264 265 266 274 273 275 279 279 278 277 277 277 278 279 280 282 283 283 283 283 281 282 282 282 282 282 282 282
251 225 231 218 221 225 228 233 240 248 253 256 257 260 262 264 263 265 265 268 270 270 271 271 275 278 279 281 282 282 283 283 283 284 284 284 285 285 286 286 286 287 287
245 238 258 229 227 231 237 243 242 249 252 259 261 264 267 266 265 266 268 269 269 270 271 273 275 278 280 281 282 281 281 280 281 283 284 285 286 287 288 288 288 288 288
247 254 242 221 225 226 236 248 251 243 250 260 262 263 264 264 266 267 268 269 270 271 273 275 276 277 278 278 279 281 282 283 284 285 286 286 287 287 288 288 288 288 288
245 237 221 226 226 233 242 240 247 254 259 258 258 259 263 264 265 267 267 269 272 273 274 276 278 279 280 281 281 282 282 283 283 284 284 285 286 286 287 287 287 286 286
244 241 237 235 240 239 240 241 244 250 252 254 256 258 261 264 266 269 271 273 274 275 276 276 275 276 277 279 280 280 280 282 284 285 286 287 288 287 287 287 286 286 285
254 251 250 250 253 254 246 243 245 246 252 256 259 262 265 267 268 268 269 270 270 271 272 274 276 277 278 279 280 282 284 286 287 288 288 287 286 285 286 286 287 287 286
244 245 247 248 249 253 258 260 259 261 262 264 265 266 267 268 270 270 271 272 274 276 277 278 278 280 280 282 284 286 287 287 287 287 286 285 285 285 286 287 287 288 287
268 269 270 270 271 270 269 267 267 267 267 268 269 270 271 272 273 274 275 276 276 277 278 279 280 281 282 284 285 286 285 285 285 285 285 285 285 285 286 286 287 288 289
277 275 273 271 270 269 269 270 270 271 271 271 271 272 273 274 275 276 277 277 278 279 280 280 280 281 282 284 285 283 283 283 283 284 286 286 286 287 288 288 289 289 289
273 273 273 273 273 273 273 273 273 274 274 274 274 275 275 275 276 276 277 277 278 278 278 279 280 281 281 282 282 282 283 284 285 286 286 287 287 288 288 288 288 288 288
274 274 274 274 274 274 274 274 274 274 274 274 274 274 275 275 276 276 277 277 278 278 279 279 279 280 281 282 283 284 284 285 285 286 287 288 288 288 288 287 288 288 288
276 276 276 276 276 275 275 275 275 275 275 275 275 276 276 276 277 277 278 278 279 279 280 281 282 282 282 283 284 285 285 286 287 288 288 288 288 288 288 288 289 290 290
279 279 279 279 279 279 279 279 279 279 279 280 280 280 280 280 280 280 281 281 281 281 282 282 282 283 283 284 285 286 287 287 286 287 287 288 289 289 289 290 290 291 290
281 281 281 281 281 282 282 282 281 281 281 281 281 281 281 281 281 281 281 280 280 281 281 282 283 283 284 285 285 285 285 286 286 286 286 287 288 290 292 293 293 292 291
284 284 284 284 283 283 282 282 282 281 281 280 280 280 280 279 279 279 279 279 280 280 281 282 283 282 283 283 284 284 284 285 286 286 288 291 293 295 296 296 296 295 294
Height
5667 5670 5671 5671 5672 5671 5670 5668 5666 5668 5670 5673 5677 5683 5687 5692 5698 5703 5706 5709 5712 5714 5716 5718 5720 5720 5721 5722 5724 5724 5725 5725 5724 5727 5725 5726 5726 5726 5726 5725 5724 5724 5723
5663 5666 5668 5668 5668 5667 5667 5667 5666 5668 5670 5673 5677 5681 5685 5689 5692 5697 5699 5703 5706 5709 5710 5712 5713 5715 5716 5718 5718 5718 5717 5717 5717 5717 5721 5720 5718 5718 5717 5716 5717 5715 5713
5658 5662 5664 5666 5666 5665 5665 5666 5667 5669 5671 5673 5676 5679 5683 5687 5690 5693 5697 5698 5701 5704 5705 5707 5708 5709 5712 5712 5711 5710 5711 5711 5710 5709 5713 5712 5711 5709 5708 5707 5708 5705 5703
5654 5658 5660 5662 5663 5663 5663 5664 5666 5667 5670 5673 5675 5677 5680 5683 5686 5690 5692 5695 5697 5699 5701 5702 5703 5704 5704 5704 5704 5704 5704 5703 5703 5702 5702 5705 5702 5703 5698 5698 5696 5695 5693
5650 5654 5656 5657 5659 5660 5661 5661 5663 5665 5668 5670 5672 5674 5677 5679 5682 5685 5687 5690 5691 5693 5694 5694 5695 5696 5696 5695 5696 5697 5696 5695 5694 5693 5691 5691 5692 5691 5689 5688 5685 5685 5684
5646 5649 5650 5652 5654 5656 5658 5659 5661 5663 5664 5666 5668 5670 5672 5675 5677 5679 5680 5682 5683 5684 5684 5685 5687 5688 5688 5689 5689 5689 5688 5686 5683 5682 5681 5679 5679 5679 5679 5677 5674 5670 5667
5637 5641 5643 5646 5649 5651 5653 5654 5657 5659 5660 5662 5664 5665 5669 5670 5671 5672 5674 5675 5676 5676 5678 5679 5680 5680 5680 5680 5679 5678 5677 5675 5673 5671 5670 5669 5667 5665 5663 5662 5659 5655 5651
5630 5634 5636 5640 5642 5644 5647 5649 5651 5653 5655 5656 5657 5660 5662 5664 5665 5666 5667 5667 5667 5669 5670 5670 5670 5670 5669 5669 5667 5666 5665 5664 5662 5661 5659 5655 5654 5651 5648 5645 5641 5639 5632
5624 5626 5630 5633 5635 5637 5640 5642 5643 5645 5647 5649 5650 5652 5654 5656 5657 5658 5658 5658 5659 5659 5660 5660 5660 5659 5659 5658 5657 5655 5653 5651 5650 5649 5644 5642 5639 5635 5631 5629 5624 5620 5615
5616 5618 5621 5622 5625 5629 5632 5634 5635 5637 5639 5641 5642 5643 5645 5647 5649 5649 5648 5647 5647 5648 5648 5648 5647 5645 5644 5643 5642 5640 5638 5636 5634 5632 5630 5624 5622 5618 5615 5611 5605 5599 5595
5607 5611 5612 5614 5618 5620 5623 5626 5628 5630 5631 5633 5634 5635 5635 5636 5637 5638 5637 5636 5635 5634 5633 5632 5632 5631 5630 5629 5627 5625 5622 5620 5616 5613 5611 5607 5603 5599 5595 5591 5586 5582 5577
5599 5601 5603 5605 5608 5611 5614 5616 5618 5620 5622 5623 5624 5625 5625 5625 5625 5625 5625 5624 5623 5621 5620 5619 5617 5616 5615 5613 5611 5608 5605 5601 5598 5595 5591 5587 5583 5578 5574 5570 5565 5559 5553
5590 5589 5593 5595 5596 5599 5602 5605 5607 5608 5610 5611 5612 5612 5613 5612 5612 5611 5610 5610 5609 5608 5606 5604 5603 5601 5600 5597 5594 5590 5587 5583 5580 5576 5572 5568 5563 5558 5552 5547 5542 5536 5530
5577 5578 5579 5582 5583 5585 5589 5592 5594 5594 5597 5597 5599 5599 5600 5600 5599 5598 5598 5597 5596 5594 5592 5590 5588 5585 5582 5579 5576 5573 5569 5564 5560 5556 5551 5546 5541 5536 5531 5525 5519 5513 5506
5567 5569 5566 5568 5569 5570 5574 5576 5579 5581 5582 5583 5585 5585 5586 5585 5585 5585 5584 5582 5581 5579 5576 5573 5570 5567 5564 5561 5557 5553 5549 5545 5541 5536 5531 5526 5520 5514 5508 5502 5495 5489 5484
5555 5556 5554 5556 5558 5556 5557 5559 5562 5565 5567 5568 5569 5570 5570 5570 5569 5568 5567 5566 5563 5561 5558 5555 5552 5548 5545 5541 5538 5534 5529 5525 5520 5514 5508 5502 5496 5490 5484 5479 5473 5468 5463
5541 5543 5544 5544 5545 5547 5546 5546 5548 5551 5552 5554 5555 5554 5554 5553 5552 5550 5548 5546 5544 5542 5539 5536 5532 5529 5525 5522 5517 5512 5507 5501 5496 5490 5484 5478 5472 5467 5461 5456 5451 5445 5440
5532 5532 5533 5534 5534 5535 5535 5535 5536 5537 5537 5538 5538 5537 5535 5534 5532 5531 5529 5527 5525 5522 5519 5516 5512 5508 5504 5499 5494 5488 5483 5477 5472 5466 5460 5455 5450 5445 5439 5434 5429 5423 5417
5523 5522 5523 5523 5523 5523 5524 5524 5523 5524 5523 5522 5520 5519 5517 5515 5513 5511 5509 5507 5504 5501 5497 5493 5489 5485 5480 5475 5470 5465 5459 5454 5449 5443 5438 5432 5427 5422 5416 5411 5406 5400 5394
5512 5512 5511 5511 5511 5511 5510 5510 5509 5508 5506 5504 5503 5500 5499 5497 5494 5491 5488 5485 5482 5478 5475 5471 5466 5461 5456 5451 5446 5441 5436 5431 5425 5420 5415 5410 5405 5399 5393 5387 5382 5376 5370
5499 5498 5497 5496 5495 5494 5493 5492 5490 5488 5486 5484 5482 5480 5477 5475 5472 5469 5466 5462 5459 5455 5451 5447 5442 5437 5433 5428 5423 5418 5412 5407 5401 5396 5391 5386 5379 5374 5368 5363 5357 5351 5345
5484 5482 5481 5479 5477 5475 5473 5472 5470 5467 5465 5463 5460 5458 5455 5452 5449 5446 5443 5439 5436 5432 5427 5423 5418 5413 5408 5403 5399 5394 5388 5382 5377 5371 5366 5360 5354 5349 5343 5337 5331 5326 5321
5465 5463 5461 5459 5457 5455 5452 5450 5448 5446 5443 5441 5438 5436 5433 5430 5427 5423 5419 5415 5411 5407 5402 5398 5393 5388 5383 5378 5373 5368 5362 5357 5352 5346 5341 5336 5330 5325 5320 5314 5309 5305 5300
5447 5445 5442 5440 5438 5435 5432 5430 5427 5424 5422 5418 5415 5412 5409 5405 5401 5397 5393 5389 5385 5381 5376 5371 5367 5362 5357 5352 5347 5343 5338 5334 5329 5325 5320 5315 5310 5305 5301 5296 5292 5287 5282
5426 5424 5421 5418 5415 5412 5409 5406 5403 5400 5396 5393 5390 5386 5382 5378 5374 5370 5366 5362 5358 5354 5349 5345 5341 5337 5333 5329 5325 5321 5317 5313 5309 5306 5302 5298 5294 5289 5284 5279 5273 5267 5262
5402 5399 5396 5393 5390 5387 5384 5381 5377 5374 5370 5366 5362 5359 5355 5351 5347 5344 5340 5336 5332 5329 5325 5322 5319 5315 5312 5309 5306 5303 5299 5296 5294 5291 5287 5283 5278 5272 5266 5260 5253 5247 5240